Location: Unspecified
(0.0000°N, 0.0000°E)
Time: 18:21:30
(UTC+00:00)

SRMSAT - Pass Details

Date: 10 December 2017
Orbit: 849 x 866 km, 20.0° (Epoch: 23 June)

Event Time Altitude Azimuth Distance (km) Brightness Sun altitude
Rises 21:02:37 0° 236° (WSW) 3,397 ? -42.6°
Reaches altitude 10° 21:07:38 10° 200° (SSW) 2,464 ? -43.7°
Enters shadow 21:07:58 10° 197° (SSW) 2,441 ? -43.8°
